Weather History for KJAN - February, 2014

Change the Weather History Date:

Monday, February 17, 2014

  Actual Average Record
Temperature  
Mean Temperature 62 °F 50 °F  
Max Temperature 73 °F 61 °F 81 °F (1927)
Min Temperature 51 °F 39 °F 15 °F (1900)
Degree Days  
Heating Degree Days 3 15  
Month to date heating degree days 352 287  
Since 1 July heating degree days 2135 1839  
Cooling Degree Days 0 0  
Month to date cooling degree days 0 0  
Year to date cooling degree days 0 4  
Growing Degree Days 12 (Base 50)    
Moisture  
Dew Point 54 °F    
Average Humidity 79    
Maximum Humidity 100    
Minimum Humidity 57    
Precipitation  
Precipitation 0.00 in 0.17 in 1.48 in (1921)
Month to date precipitation 3.48 2.93  
Year to date precipitation 5.09 7.90  
Sea Level Pressure  
Sea Level Pressure 30.08 in    
Wind  
Wind Speed 6 mph (South)    
Max Wind Speed 20 mph    
Max Gust Speed 23 mph    
Visibility 8 miles    
Events Fog    
T = Trace of Precipitation, MM = Missing Value Source: NWS Daily Summary

Daily Weather History Graph

Daily Weather History Graph

Search for Another Location

Airport or City:

Trip Planner

Search our weather history database for the weather conditions in past years. The results will help you decide how hot, cold, wet, or windy it might be!

Date:

Astronomy

Feb. 17, 2014 Rise Set
Actual Time 6:40 AM CST 5:48 PM CST
Civil Twilight 6:15 AM CST 6:13 PM CST
Nautical Twilight 5:47 AM CST 6:41 PM CST
Astronomical Twilight 5:18 AM CST 7:10 PM CST
Moon 8:29 PM CST (2/17) 7:52 AM CST (2/17)
Length of Visible Light 11h 57m
Length of Day
11h 07m
Waning Gibbous, 93% of the Moon is Illuminated
Feb 17
Waning Gibbous
Feb 22
Last Quarter
Mar 1
New
Mar 8
First Quarter
Mar 16
Full

Hourly Weather History & Observations

Time (CST) Temp. Dew Point Humidity Pressure Visibility Wind Dir Wind Speed Gust Speed Precip Events Conditions
12:54 AM 55.9 °F 50.0 °F 80% 30.08 in 10.0 mi South 6.9 mph - N/A   Overcast
1:54 AM 55.9 °F 51.1 °F 84% 30.09 in 10.0 mi South 4.6 mph - N/A   Overcast
2:54 AM 57.0 °F 52.0 °F 83% 30.08 in 10.0 mi SSE 6.9 mph - N/A   Overcast
3:54 AM 57.0 °F 52.0 °F 83% 30.08 in 10.0 mi South 10.4 mph - N/A   Overcast
4:54 AM 57.0 °F 53.1 °F 87% 30.07 in 10.0 mi South 9.2 mph - N/A   Overcast
5:54 AM 55.0 °F 52.0 °F 89% 30.06 in 10.0 mi South 5.8 mph - N/A   Scattered Clouds
6:54 AM 57.0 °F 54.0 °F 89% 30.08 in 10.0 mi South 6.9 mph - N/A   Mostly Cloudy
7:54 AM 59.0 °F 55.0 °F 87% 30.09 in 10.0 mi South 8.1 mph - N/A   Overcast
8:54 AM 62.1 °F 55.9 °F 80% 30.09 in 10.0 mi South 12.7 mph - N/A   Mostly Cloudy
9:54 AM 64.9 °F 55.9 °F 73% 30.10 in 10.0 mi South 10.4 mph - N/A   Overcast
10:54 AM 66.9 °F 55.9 °F 68% 30.10 in 10.0 mi South 11.5 mph - N/A   Overcast
11:54 AM 71.1 °F 57.0 °F 61% 30.06 in 10.0 mi South 13.8 mph 20.7 mph N/A   Mostly Cloudy
12:54 PM 71.1 °F 57.0 °F 61% 30.02 in 10.0 mi SSW 15.0 mph 23.0 mph N/A   Overcast
1:54 PM 71.1 °F 57.0 °F 61% 30.01 in 10.0 mi SW 10.4 mph - N/A   Overcast
2:54 PM 72.0 °F 57.0 °F 59% 30.01 in 10.0 mi SSW 6.9 mph - N/A   Overcast
3:54 PM 73.0 °F 57.9 °F 59% 30.02 in 10.0 mi SW 6.9 mph - N/A   Overcast
4:54 PM 72.0 °F 57.0 °F 59% 30.04 in 10.0 mi WSW 4.6 mph - N/A   Overcast
5:54 PM 69.1 °F 57.0 °F 65% 30.06 in 10.0 mi Calm Calm - N/A   Overcast
6:54 PM 64.9 °F 57.9 °F 78% 30.07 in 10.0 mi Calm Calm - N/A   Overcast
7:54 PM 63.0 °F 57.0 °F 81% 30.09 in 10.0 mi Calm Calm - N/A   Overcast
8:54 PM 59.0 °F 55.9 °F 90% 30.10 in 10.0 mi Calm Calm - N/A   Clear
9:54 PM 57.0 °F 54.0 °F 89% 30.11 in 7.0 mi Calm Calm - N/A   Clear
10:54 PM 54.0 °F 53.1 °F 97% 30.10 in 4.0 mi Calm Calm - N/A   Clear
11:05 PM 55.4 °F 53.6 °F 94% 30.11 in 2.5 mi Calm Calm - N/A   Clear
11:14 PM 53.6 °F 51.8 °F 94% 30.11 in 3.0 mi Calm Calm - N/A   Clear
11:29 PM 53.6 °F 51.8 °F 94% 30.10 in 2.5 mi Calm Calm - N/A   Clear
11:41 PM 53.6 °F 51.8 °F 94% 30.10 in 3.0 mi Calm Calm - N/A   Scattered Clouds
11:47 PM 53.6 °F 51.8 °F 94% 30.10 in 1.5 mi Calm Calm - N/A   Mostly Cloudy
11:54 PM 52.0 °F 51.1 °F 97% 30.10 in 0.2 mi Calm Calm - N/A Fog Fog